Zurück zum Katalog

IRIDIUM 33 DEB

AktivPO
NORAD 35625·DEBRIS·🇺🇸 United States

Gestartet Sep 14, 1997 von Baikonur Cosmodrome

Loading…

Nächste Überflüge (nächste 24 Stunden)

TLE

AlterndSource: Space-Track

Epoche: Sep 9, 2026, 19:13 UTC

1 35625U 97051QX  26252.80098529  .00002586  00000-0  89541-3 0  9992
2 35625  86.1836 263.8823 0104501  44.0263  77.7811 14.32296597699189

Verfolge IRIDIUM 33 DEB in Echtzeit mit AllMySat

Download on the App Store